Location: Unspecified
(0.0000°N, 0.0000°E)
Time: 07:08:08
(UTC+02:00)

Vanguard 1 Rocket - Visible Passes

Search period start: 28 August 2016 00:00
Search period end: 07 September 2016 00:00
Orbit: 652 x 4225 km, 34.3° (Epoch: 26 August)

Date Brightness Start Highest point End Pass type
(mag) Time Alt. Az. Time Alt. Az. Time Alt. Az.
28 Aug 9.2 05:11:55 30° ESE 05:11:55 30° ESE 05:16:13 10° SE visible
28 Aug 9.4 07:29:36 10° WSW 07:35:37 24° SSW 07:45:11 10° SSE visible
28 Aug 10.8 20:15:35 10° W 20:28:37 22° NW 20:37:18 10° N visible
29 Aug 8.5 06:22:31 34° SW 06:23:04 34° SSW 06:31:52 10° SE visible
30 Aug 9.4 05:15:45 24° SE 05:15:45 24° SE 05:19:07 10° SE visible
30 Aug 9.7 07:34:36 10° SW 07:39:41 17° SSW 07:46:51 10° SSE visible
30 Aug 10.9 20:21:34 10° WNW 20:31:58 17° NW 20:39:29 10° N visible
31 Aug 9.0 06:26:16 23° SSW 06:26:49 23° SSW 06:33:54 10° SSE visible
01 Sep 9.7 05:19:25 18° SSE 05:19:25 18° SSE 05:21:42 10° SE visible
01 Sep 11.0 20:28:25 10° WNW 20:35:41 13° NNW 20:41:26 10° N visible
02 Sep 9.5 06:29:50 15° SSW 06:30:43 15° SSW 06:35:27 10° SSE visible
03 Sep 10.0 05:22:54 13° SSE 05:22:54 13° SSE 05:23:55 10° SSE visible
03 Sep 11.0 20:36:25 10° NW 20:39:46 11° NNW 20:42:45 10° NNW visible
